Flag for Reunion (French) Weather past 2 weeks in Saint-Pierre, Reunion (French)

Now
79 °F

Warm.


Feels Like: 82 °F
Forecast: 78 / 85 °F
Wind: 5 mph from Northeast

Location: Saint Airport-Pierre

Current Time: Dec 29, 2014 at 3:57:30 AM

Latest Report: Dec 29, 2014 at 3:30 AM


Visibility: N/A

Pressure: 29.89 "Hg

Humidity: 79%

Dew point: 72 °F

Location of Saint-PierreLocation

Historic Weather in Saint-Pierre — Graph

°F

Saint-Pierre temperature yesterday

Maximum temperature yesterday: 84 °F (at 3:30 PM)
Minimum temperature yesterday: 77 °F (at 4:00 AM)
Average temperature yesterday: 80 °F

Past Weeks' High & Low Weather Summary

 TemperatureHumidityPressure
High91 °F (Dec 19, 11:30 AM)94% (Dec 21, 6:00 PM)30.01 "Hg (Dec 21, 6:00 PM)
Low75 °F (Dec 14, 3:00 AM)55% (Dec 18, 7:30 AM)29.80 "Hg (Dec 18, 4:00 PM)
Average82 °F73%29.89 "Hg
* Reported Dec 14 3:00 AM — Dec 29 3:00 AM, Saint-Pierre, Weather by CustomWeather, © 2014

Note: Actual official high and low records may vary slightly from our data, if they occured in-between our weather recording intervals... More about our weather records

Advertising

Saint-Pierre weather history for previous 24 hours

 ConditionsComfort  
Time TempWeatherWind HumidityBarometerVisibility
3:00 AM
Dec 29
79 °FWarm.3 mph84%29.89 "HgN/A
2:30 AM79 °FWarm.6 mph84%29.89 "HgN/A
2:00 AM79 °FWarm.5 mph84%29.89 "HgN/A
1:30 AM79 °FWarm.6 mph84%29.92 "HgN/A
1:00 AM79 °FOvercast.3 mph84%29.92 "HgN/A
12:30 AM79 °FOvercast.5 mph84%29.92 "HgN/A
12:00 AM79 °FOvercast.5 mph84%29.92 "HgN/A
11:30 PM
Dec 28
79 °FPassing clouds.2 mph84%29.92 "HgN/A
11:00 PM79 °FWarm.5 mph84%29.92 "HgN/A
10:30 PM79 °FWarm.5 mph84%29.95 "HgN/A
10:00 PM79 °FWarm.3 mph89%29.95 "HgN/A
9:30 PM79 °FWarm.3 mph89%29.92 "HgN/A
9:00 PM79 °FWarm.2 mph89%29.92 "HgN/A
8:30 PM81 °FWarm.1 mph84%29.92 "HgN/A
8:00 PM81 °FWarm.3 mph84%29.92 "HgN/A
7:30 PM81 °FWarm.2 mph84%29.92 "HgN/A
7:00 PM81 °FWarm.No wind79%29.92 "HgN/A
6:30 PM81 °FPartly cloudy.2 mph84%29.92 "HgN/A
6:00 PM82 °FPartly sunny.2 mph79%29.92 "HgN/A
5:30 PM82 °FWarm.3 mph74%29.89 "HgN/A
5:00 PM82 °FPartly sunny.5 mph79%29.89 "HgN/A
4:30 PM82 °FPartly sunny.7 mph79%29.89 "HgN/A
4:00 PM82 °FBroken clouds.7 mph79%29.89 "HgN/A
3:30 PM84 °FBroken clouds.8 mph74%29.89 "HgN/A
3:00 PM82 °FWarm.7 mph79%29.89 "HgN/A
2:30 PM82 °FWarm.5 mph79%29.89 "HgN/A
2:00 PM82 °FWarm.3 mph79%29.89 "HgN/A
1:30 PM82 °FWarm.7 mph79%29.89 "HgN/A
1:00 PM82 °FPassing clouds.8 mph79%29.89 "HgN/A
12:30 PM82 °FPassing clouds.3 mph79%29.89 "HgN/A
12:00 PM82 °FWarm.5 mph79%29.89 "HgN/A
11:30 AM82 °FWarm.5 mph79%29.92 "HgN/A
11:00 AM81 °FWarm.2 mph79%29.92 "HgN/A
10:30 AM81 °FWarm.3 mph84%29.92 "HgN/A
10:00 AM79 °FLight rain. Scattered clouds.5 mph84%29.92 "HgN/A
9:30 AM79 °FLight rain. Scattered clouds.3 mph84%29.92 "HgN/A
8:30 AM79 °FLight rain. Scattered clouds.5 mph84%29.92 "HgN/A
7:30 AM79 °FLight rain. Partly sunny.8 mph84%29.92 "HgN/A
7:00 AM79 °FWarm.5 mph79%29.92 "HgN/A
6:30 AM79 °FScattered clouds.1 mph79%29.92 "HgN/A
6:00 AM79 °FOvercast.5 mph79%29.89 "HgN/A
5:30 AM79 °FWarm.8 mph79%29.86 "HgN/A
5:00 AM79 °FOvercast.6 mph79%29.86 "HgN/A
4:30 AM79 °FWarm.7 mph79%29.86 "HgN/A
4:00 AM77 °FWarm.7 mph89%29.86 "HgN/A
3:30 AM79 °FWarm.6 mph79%29.86 "HgN/A
3:00 AM79 °FPartly cloudy.5 mph84%29.83 "HgN/A
Weather by CustomWeather, © 2014

See weather overviewHow to use our weather pages